Burnside, LA

11:47 PM CDT on September 25, 2016 (GMT -0500)
Gonzales

Weather History for KL38 - March, 2013

Change the Weather History Date:

Thursday, March 14, 2013

  Actual Average (KBTR) Record (KBTR)
Temperature  
Mean Temperature 52 °F 61 °F  
Max Temperature 67 °F 72 °F 90 °F (1921)
Min Temperature 38 °F 50 °F 25 °F (1993)
Degree Days  
Heating Degree Days 12 6  
Month to date heating degree days 95  
Since 1 July heating degree days 1430  
Cooling Degree Days 0 2  
Month to date cooling degree days 21  
Year to date cooling degree days 52  
Growing Degree Days 2 (Base 50)    
Moisture  
Dew Point 33 °F    
Average Humidity 48    
Maximum Humidity 81    
Minimum Humidity 27    
Precipitation  
Precipitation 0.00 in 0.12 in 2.15 in (1964)
Month to date precipitation 2.02  
Year to date precipitation 12.78  
Snow  
Snow 0.00 in - - ()
Month to date snowfall  
Since 1 July snowfall  
Snow Depth -    
Sea Level Pressure  
Sea Level Pressure 30.37 in    
Wind  
Wind Speed 2 mph (ESE)    
Max Wind Speed 8 mph    
Max Gust Speed -    
Visibility 10 miles    
Events      
T = Trace of Precipitation, MM = Missing Value Source: NWS Daily Summary

Daily Weather History Graph

Daily Weather History Graph

Search for Another Location

Airport or City:

Trip Planner

Search our weather history database for the weather conditions in past years. The results will help you decide how hot, cold, wet, or windy it might be!

Date:

Astronomy

Mar. 14, 2013 Rise Set
Actual Time 7:14 AM CDT 7:11 PM CDT
Civil Twilight 6:50 AM CDT 7:35 PM CDT
Nautical Twilight 6:22 AM CDT 8:03 PM CDT
Astronomical Twilight 5:54 AM CDT 8:31 PM CDT
Moon 8:43 AM CDT (3/14) 10:10 PM CDT (3/14)
Length of Visible Light 12h 44m
Length of Day
11h 57m
Waxing Crescent, 9% of the Moon is Illuminated
Mar 14
Waxing Crescent
Mar 19
First Quarter
Mar 27
Full
Apr 2
Last Quarter
Apr 10
New

Hourly Weather History & Observations

Time (CDT) Temp. Windchill Dew Point Humidity Pressure Visibility Wind Dir Wind Speed Gust Speed Precip Events Conditions
12:15 AM 50.7 °F - 23.9 °F 35% 30.39 in 10.0 mi Calm Calm - N/A   Clear
12:35 AM 50.9 °F - 23.0 °F 34% 30.39 in 10.0 mi Calm Calm - N/A   Clear
12:55 AM 50.4 °F - 22.8 °F 34% 30.39 in 10.0 mi NNE 3.5 mph - N/A   Clear
1:15 AM 49.6 °F - 23.0 °F 35% 30.39 in 10.0 mi NNE 3.5 mph - N/A   Clear
1:55 AM 48.2 °F - 24.6 °F 40% 30.39 in 10.0 mi Calm Calm - N/A   Clear
2:15 AM 47.8 °F - 24.4 °F 40% 30.39 in 10.0 mi Calm Calm - N/A   Clear
2:35 AM 46.6 °F - 25.5 °F 44% 30.38 in 10.0 mi Calm Calm - N/A   Clear
2:55 AM 46.0 °F - 26.2 °F 46% 30.38 in 10.0 mi Calm Calm - N/A   Clear
3:15 AM 46.2 °F - 26.6 °F 46% 30.38 in 10.0 mi Calm Calm - N/A   Clear
3:35 AM 46.0 °F - 25.5 °F 45% 30.37 in 10.0 mi Calm Calm - N/A   Clear
3:55 AM 42.1 °F - 30.0 °F 62% 30.37 in 10.0 mi Calm Calm - N/A   Clear
4:15 AM 41.4 °F - 32.0 °F 69% 30.37 in 10.0 mi Calm Calm - N/A   Clear
4:35 AM 41.2 °F - 33.6 °F 74% 30.37 in 10.0 mi Calm Calm - N/A   Clear
4:55 AM 41.0 °F - 30.2 °F 65% 30.37 in 10.0 mi Calm Calm - N/A   Clear
5:15 AM 41.4 °F - 30.0 °F 64% 30.37 in 10.0 mi Calm Calm - N/A   Clear
5:35 AM 40.3 °F - 30.2 °F 67% 30.38 in 10.0 mi Calm Calm - N/A   Clear
5:55 AM 39.9 °F - 32.4 °F 74% 30.38 in 10.0 mi Calm Calm - N/A   Clear
6:15 AM 38.7 °F - 33.3 °F 81% 30.39 in 10.0 mi Calm Calm - N/A   Clear
6:35 AM 38.8 °F - 31.1 °F 74% 30.40 in 10.0 mi Calm Calm - N/A   Clear
6:55 AM 38.5 °F - 32.0 °F 78% 30.41 in 10.0 mi Calm Calm - N/A   Clear
7:15 AM 38.1 °F - 32.2 °F 79% 30.41 in 10.0 mi Calm Calm - N/A   Clear
7:35 AM 39.4 °F - 32.0 °F 75% 30.42 in 10.0 mi Calm Calm - N/A   Clear
7:55 AM 42.4 °F - 31.5 °F 65% 30.42 in 10.0 mi Calm Calm - N/A   Clear
8:15 AM 44.6 °F 42.2 °F 31.8 °F 61% 30.44 in 10.0 mi NE 4.6 mph - N/A   Clear
8:35 AM 46.4 °F 44.3 °F 32.0 °F 57% 30.44 in 10.0 mi NE 4.6 mph - N/A   Clear
8:55 AM 47.7 °F - 32.5 °F 56% 30.45 in 10.0 mi ENE 6.9 mph - N/A   Clear
9:15 AM 49.5 °F - 32.0 °F 51% 30.45 in 10.0 mi ENE 8.1 mph - N/A   Clear
9:35 AM 51.3 °F - 31.8 °F 47% 30.45 in 10.0 mi East 6.9 mph - N/A   Clear
9:55 AM 52.9 °F - 31.8 °F 45% 30.45 in 10.0 mi East 4.6 mph - N/A   Clear
10:15 AM 54.5 °F - 29.8 °F 39% 30.46 in 10.0 mi East 8.1 mph - N/A   Clear
10:35 AM 54.7 °F - 28.9 °F 37% 30.46 in 10.0 mi ENE 4.6 mph - N/A   Clear
10:55 AM 55.6 °F - 30.6 °F 39% 30.46 in 10.0 mi East 4.6 mph - N/A   Clear
11:15 AM 56.5 °F - 30.4 °F 37% 30.45 in 10.0 mi ESE 6.9 mph - N/A   Clear
11:35 AM 57.6 °F - 30.0 °F 35% 30.44 in 10.0 mi ESE 3.5 mph - N/A   Clear
11:55 AM 58.3 °F - 28.6 °F 32% 30.44 in 10.0 mi ENE 5.8 mph - N/A   Clear
12:15 PM 59.5 °F - 27.5 °F 30% 30.43 in 10.0 mi ENE 5.8 mph - N/A   Clear
12:35 PM 60.3 °F - 27.5 °F 29% 30.42 in 10.0 mi ENE 4.6 mph - N/A   Clear
12:55 PM 60.8 °F - 29.1 °F 30% 30.41 in 10.0 mi NE 4.6 mph - N/A   Clear
1:15 PM 62.2 °F - 30.7 °F 31% 30.40 in 10.0 mi ESE 3.5 mph - N/A   Clear
1:35 PM 62.4 °F - 31.3 °F 31% 30.39 in 10.0 mi Calm Calm - N/A   Clear
1:55 PM 63.3 °F - 32.2 °F 31% 30.39 in 10.0 mi Calm Calm - N/A   Clear
2:15 PM 63.3 °F - 31.5 °F 30% 30.38 in 10.0 mi Calm Calm - N/A   Clear
2:35 PM 64.4 °F - 32.4 °F 30% 30.36 in 10.0 mi SSE 3.5 mph - N/A   Clear
2:55 PM 64.8 °F - 32.5 °F 30% 30.35 in 10.0 mi SSW 3.5 mph - N/A   Clear
3:15 PM 65.3 °F - 32.4 °F 29% 30.34 in 10.0 mi SSE 4.6 mph - N/A   Clear
3:35 PM 66.2 °F - 32.9 °F 29% 30.33 in 10.0 mi SE 4.6 mph - N/A   Clear
3:55 PM 66.0 °F - 32.7 °F 29% 30.33 in 10.0 mi South 3.5 mph - N/A   Clear
4:15 PM 66.4 °F - 31.6 °F 27% 30.33 in 10.0 mi Calm Calm - N/A   Clear
4:35 PM 66.6 °F - 32.2 °F 28% 30.32 in 10.0 mi ESE 4.6 mph - N/A   Clear
4:55 PM 67.3 °F - 32.9 °F 28% 30.31 in 10.0 mi Calm Calm - N/A   Clear
5:15 PM 67.3 °F - 32.5 °F 28% 30.31 in 10.0 mi ESE 3.5 mph - N/A   Clear
5:35 PM 67.1 °F - 34.2 °F 30% 30.31 in 10.0 mi Calm Calm - N/A   Clear
5:55 PM 66.6 °F - 33.4 °F 29% 30.31 in 10.0 mi Calm Calm - N/A   Clear
6:15 PM 66.6 °F - 34.7 °F 31% 30.30 in 10.0 mi SSE 3.5 mph - N/A   Clear
6:35 PM 65.3 °F - 36.7 °F 35% 30.30 in 10.0 mi SSE 4.6 mph - N/A   Clear
6:55 PM 63.5 °F - 36.0 °F 36% 30.30 in 10.0 mi SSE 3.5 mph - N/A   Clear
7:15 PM 63.5 °F - 35.8 °F 36% 30.30 in 10.0 mi Calm Calm - N/A   Clear
7:35 PM 60.3 °F - 36.3 °F 41% 30.31 in 10.0 mi Calm Calm - N/A   Clear
7:55 PM 58.6 °F - 39.6 °F 49% 30.31 in 10.0 mi Calm Calm - N/A   Clear
8:15 PM 56.5 °F - 42.3 °F 59% 30.31 in 10.0 mi Calm Calm - N/A   Clear
8:35 PM 55.4 °F - 41.0 °F 58% 30.31 in 10.0 mi Calm Calm - N/A   Clear
8:55 PM 58.1 °F - 36.0 °F 44% 30.32 in 10.0 mi Calm Calm - N/A   Clear
9:15 PM 55.0 °F - 38.1 °F 53% 30.33 in 10.0 mi South 5.8 mph - N/A   Clear
9:35 PM 55.4 °F - 39.4 °F 55% 30.33 in 10.0 mi South 4.6 mph - N/A   Clear
9:55 PM 53.8 °F - 40.5 °F 61% 30.34 in 10.0 mi South 4.6 mph - N/A   Clear
10:15 PM 54.5 °F - 42.8 °F 65% 30.34 in 10.0 mi SSW 4.6 mph - N/A   Clear
10:35 PM 53.6 °F - 43.2 °F 68% 30.34 in 10.0 mi SSW 4.6 mph - N/A   Clear
10:55 PM 52.7 °F - 43.9 °F 72% 30.34 in 10.0 mi South 3.5 mph - N/A   Clear
11:15 PM 50.9 °F - 43.7 °F 76% 30.34 in 10.0 mi Calm Calm - N/A   Clear
11:35 PM 50.0 °F - 43.7 °F 79% 30.33 in 10.0 mi Calm Calm - N/A   Clear
11:55 PM 49.8 °F - 43.9 °F 80% 30.33 in 10.0 mi Calm Calm - N/A   Clear